QPF
0.05 0.04 0.04 0.04 0.03 0.05 0.05 0.04 0.03 0.02 0.01 0.00 0.00 0.01 0.01 0.01 0.02 0.01 0.01 0.02 0.01 0.02 0.03 0.03 0.03 0.02 0.02 0.02 0.03 0.04 0.03 0.02 0.01 0.01 0.01 0.02 0.03 0.04
0.05 0.05 0.03 0.03 0.02 0.03 0.03 0.03 0.03 0.02 0.02 0.01 0.01 0.01 0.01 0.01 0.03 0.02 0.01 0.02 0.02 0.02 0.03 0.03 0.03 0.03 0.03 0.03 0.03 0.03 0.03 0.03 0.02 0.01 0.01 0.01 0.02 0.03
0.04 0.03 0.02 0.02 0.02 0.03 0.03 0.03 0.03 0.03 0.02 0.01 0.01 0.01 0.01 0.01 0.02 0.02 0.02 0.02 0.02 0.02 0.02 0.03 0.03 0.02 0.02 0.02 0.01 0.01 0.01 0.01 0.02 0.02 0.02 0.01 0.01 0.02
0.05 0.04 0.03 0.02 0.02 0.02 0.02 0.03 0.03 0.04 0.03 0.02 0.01 0.01 0.02 0.02 0.01 0.02 0.02 0.02 0.02 0.02 0.02 0.01 0.01 0.01 0.01 0.01 0.01 0.00 0.01 0.01 0.01 0.01 0.01 0.01 0.01 0.02
0.04 0.03 0.03 0.03 0.02 0.02 0.03 0.03 0.03 0.03 0.03 0.03 0.02 0.03 0.02 0.02 0.02 0.01 0.01 0.01 0.02 0.02 0.01 0.01 0.01 0.00 0.01 0.00 0.00 0.00 0.00 0.00 0.00 0.01 0.01 0.00 0.01 0.01
0.04 0.03 0.02 0.02 0.03 0.03 0.03 0.03 0.04 0.04 0.03 0.03 0.02 0.03 0.02 0.02 0.02 0.01 0.01 0.01 0.01 0.01 0.01 0.01 0.01 0.01 0.00 0.00 0.00 0.00 0.00 0.00 0.00 0.00 0.01 0.01 0.01 0.01
0.02 0.02 0.02 0.02 0.03 0.03 0.03 0.03 0.04 0.04 0.03 0.03 0.02 0.02 0.02 0.02 0.01 0.01 0.01 0.01 0.02 0.02 0.01 0.01 0.01 0.01 0.00 0.00 0.00 0.00 0.00 0.00 0.00 0.00 0.00 0.00 0.01 0.01
0.02 0.02 0.02 0.02 0.02 0.03 0.03 0.02 0.02 0.02 0.02 0.02 0.02 0.02 0.02 0.02 0.02 0.02 0.02 0.02 0.02 0.02 0.02 0.01 0.01 0.01 0.01 0.01 0.01 0.00 0.00 0.01 0.01 0.00 0.00 0.01 0.01 0.01
0.02 0.02 0.02 0.03 0.03 0.03 0.03 0.03 0.02 0.02 0.02 0.02 0.02 0.02 0.02 0.03 0.03 0.03 0.03 0.03 0.02 0.02 0.02 0.02 0.01 0.01 0.01 0.01 0.00 0.00 0.00 0.00 0.01 0.01 0.01 0.01 0.02 0.02
0.02 0.02 0.02 0.03 0.04 0.04 0.03 0.02 0.01 0.01 0.01 0.02 0.02 0.03 0.03 0.04 0.04 0.05 0.05 0.05 0.05 0.03 0.03 0.03 0.02 0.02 0.01 0.01 0.00 0.00 0.00 0.00 0.01 0.01 0.01 0.02 0.03 0.04
0.01 0.01 0.01 0.02 0.03 0.04 0.02 0.01 0.01 0.00 0.01 0.01 0.01 0.02 0.04 0.05 0.06 0.07 0.07 0.07 0.06 0.05 0.04 0.04 0.04 0.03 0.02 0.01 0.01 0.01 0.01 0.00 0.01 0.01 0.01 0.02 0.02 0.03
0.01 0.01 0.01 0.02 0.02 0.02 0.02 0.01 0.00 0.00 0.00 0.01 0.02 0.03 0.03 0.04 0.06 0.07 0.07 0.07 0.08 0.08 0.07 0.07 0.06 0.06 0.05 0.03 0.02 0.02 0.02 0.01 0.01 0.01 0.02 0.02 0.02 0.03
0.01 0.01 0.01 0.01 0.01 0.01 0.02 0.01 0.00 0.00 0.00 0.01 0.01 0.01 0.02 0.02 0.03 0.03 0.03 0.03 0.04 0.04 0.04 0.05 0.04 0.04 0.05 0.03 0.02 0.02 0.02 0.02 0.02 0.02 0.02 0.03 0.03 0.04
0.00 0.00 0.00 0.01 0.00 0.01 0.01 0.01 0.01 0.01 0.01 0.01 0.01 0.01 0.01 0.01 0.02 0.02 0.02 0.02 0.01 0.01 0.01 0.02 0.03 0.03 0.03 0.03 0.02 0.02 0.02 0.02 0.02 0.02 0.02 0.03 0.04 0.05
0.01 0.01 0.01 0.00 0.00 0.00 0.00 0.01 0.01 0.01 0.01 0.01 0.01 0.01 0.01 0.01 0.02 0.03 0.03 0.03 0.02 0.01 0.01 0.01 0.01 0.01 0.01 0.01 0.01 0.01 0.01 0.01 0.01 0.02 0.02 0.02 0.03 0.03
0.02 0.03 0.02 0.01 0.01 0.01 0.01 0.01 0.02 0.02 0.02 0.02 0.01 0.01 0.02 0.02 0.03 0.03 0.03 0.04 0.04 0.03 0.02 0.01 0.01 0.01 0.01 0.01 0.01 0.01 0.02 0.02 0.02 0.02 0.02 0.02 0.02 0.02
0.02 0.02 0.02 0.02 0.02 0.01 0.01 0.02 0.02 0.02 0.02 0.02 0.02 0.02 0.03 0.03 0.04 0.03 0.03 0.04 0.05 0.04 0.03 0.03 0.02 0.01 0.02 0.02 0.02 0.02 0.02 0.02 0.02 0.02 0.02 0.02 0.02 0.02
0.01 0.01 0.01 0.02 0.02 0.02 0.03 0.02 0.02 0.02 0.02 0.02 0.02 0.03 0.03 0.03 0.03 0.03 0.03 0.04 0.05 0.04 0.03 0.03 0.03 0.03 0.03 0.03 0.02 0.02 0.02 0.02 0.02 0.02 0.03 0.03 0.03 0.02
0.01 0.01 0.01 0.02 0.02 0.03 0.03 0.03 0.02 0.02 0.02 0.02 0.02 0.02 0.02 0.02 0.03 0.03 0.04 0.04 0.05 0.05 0.03 0.02 0.02 0.03 0.03 0.03 0.02 0.03 0.03 0.03 0.03 0.03 0.03 0.03 0.03 0.03
0.01 0.01 0.01 0.02 0.02 0.03 0.03 0.03 0.03 0.03 0.02 0.02 0.02 0.03 0.03 0.03 0.03 0.03 0.04 0.05 0.05 0.05 0.04 0.04 0.03 0.03 0.02 0.02 0.02 0.03 0.03 0.04 0.04 0.04 0.03 0.03 0.03 0.04
0.02 0.03 0.03 0.02 0.03 0.03 0.03 0.03 0.03 0.03 0.02 0.02 0.02 0.03 0.04 0.03 0.03 0.03 0.04 0.05 0.04 0.04 0.04 0.03 0.02 0.02 0.03 0.03 0.03 0.04 0.03 0.03 0.04 0.04 0.03 0.03 0.02 0.03
0.03 0.04 0.05 0.03 0.03 0.03 0.03 0.03 0.03 0.02 0.02 0.02 0.02 0.03 0.04 0.03 0.03 0.03 0.04 0.04 0.04 0.04 0.04 0.03 0.03 0.03 0.04 0.04 0.04 0.04 0.03 0.04 0.05 0.05 0.04 0.04 0.03 0.03
0.05 0.05 0.04 0.04 0.03 0.02 0.02 0.03 0.03 0.02 0.02 0.02 0.02 0.04 0.05 0.04 0.04 0.03 0.03 0.04 0.03 0.04 0.04 0.04 0.04 0.04 0.04 0.05 0.05 0.05 0.04 0.05 0.05 0.04 0.04 0.04 0.04 0.04
MSLP
1016.95 1017.16 1017.43 1017.74 1018.05 1018.36 1018.61 1018.80 1018.92 1018.95 1018.92 1018.83 1018.72 1018.61 1018.53 1018.50 1018.54 1018.68 1018.90 1019.22 1019.63 1020.09 1020.60 1021.12 1021.62 1022.10 1022.53 1022.91 1023.23 1023.51 1023.76 1023.99 1024.19 1024.38 1024.54 1024.67 1024.75 1024.77
1016.50 1016.66 1016.88 1017.15 1017.45 1017.75 1018.03 1018.26 1018.43 1018.53 1018.57 1018.55 1018.49 1018.43 1018.38 1018.37 1018.42 1018.56 1018.79 1019.11 1019.51 1019.98 1020.49 1021.01 1021.53 1022.01 1022.45 1022.83 1023.16 1023.45 1023.69 1023.92 1024.13 1024.32 1024.49 1024.63 1024.71 1024.74
1016.10 1016.21 1016.39 1016.61 1016.88 1017.16 1017.45 1017.71 1017.93 1018.09 1018.20 1018.26 1018.28 1018.28 1018.29 1018.33 1018.41 1018.58 1018.82 1019.14 1019.54 1020.01 1020.50 1021.01 1021.51 1021.97 1022.40 1022.76 1023.08 1023.36 1023.60 1023.82 1024.03 1024.22 1024.40 1024.53 1024.62 1024.65
1015.72 1015.81 1015.94 1016.13 1016.36 1016.62 1016.90 1017.18 1017.43 1017.65 1017.82 1017.96 1018.06 1018.15 1018.23 1018.34 1018.49 1018.69 1018.96 1019.30 1019.70 1020.15 1020.62 1021.10 1021.56 1021.99 1022.37 1022.70 1022.99 1023.24 1023.47 1023.69 1023.89 1024.08 1024.26 1024.40 1024.49 1024.52
1015.33 1015.40 1015.51 1015.67 1015.88 1016.12 1016.39 1016.66 1016.93 1017.19 1017.42 1017.62 1017.80 1017.97 1018.15 1018.33 1018.56 1018.82 1019.13 1019.50 1019.90 1020.33 1020.78 1021.21 1021.62 1021.99 1022.32 1022.61 1022.86 1023.09 1023.30 1023.50 1023.70 1023.90 1024.07 1024.22 1024.31 1024.35
1014.89 1014.96 1015.06 1015.21 1015.40 1015.62 1015.87 1016.13 1016.41 1016.68 1016.94 1017.20 1017.45 1017.70 1017.96 1018.24 1018.54 1018.88 1019.25 1019.64 1020.05 1020.47 1020.89 1021.27 1021.63 1021.94 1022.21 1022.45 1022.66 1022.86 1023.05 1023.25 1023.45 1023.65 1023.84 1023.99 1024.09 1024.12
1014.35 1014.44 1014.56 1014.70 1014.88 1015.09 1015.32 1015.56 1015.82 1016.10 1016.38 1016.67 1016.97 1017.29 1017.63 1017.99 1018.37 1018.78 1019.21 1019.64 1020.07 1020.48 1020.86 1021.21 1021.51 1021.77 1021.99 1022.18 1022.36 1022.53 1022.72 1022.92 1023.13 1023.34 1023.54 1023.70 1023.80 1023.84
1013.72 1013.84 1013.97 1014.13 1014.31 1014.51 1014.72 1014.94 1015.18 1015.44 1015.72 1016.03 1016.36 1016.73 1017.13 1017.57 1018.02 1018.50 1018.98 1019.45 1019.89 1020.30 1020.67 1020.98 1021.23 1021.45 1021.62 1021.78 1021.94 1022.10 1022.29 1022.50 1022.73 1022.96 1023.17 1023.34 1023.45 1023.49
1013.01 1013.16 1013.33 1013.51 1013.70 1013.89 1014.09 1014.29 1014.51 1014.74 1015.01 1015.32 1015.67 1016.06 1016.51 1017.00 1017.51 1018.04 1018.57 1019.07 1019.54 1019.95 1020.29 1020.58 1020.80 1020.98 1021.13 1021.27 1021.41 1021.58 1021.77 1022.00 1022.24 1022.49 1022.72 1022.90 1023.03 1023.07
1012.28 1012.46 1012.66 1012.87 1013.08 1013.28 1013.47 1013.65 1013.85 1014.06 1014.31 1014.60 1014.95 1015.37 1015.84 1016.36 1016.91 1017.48 1018.04 1018.57 1019.04 1019.45 1019.79 1020.05 1020.26 1020.41 1020.54 1020.67 1020.80 1020.97 1021.18 1021.42 1021.68 1021.94 1022.19 1022.38 1022.51 1022.56
1011.58 1011.79 1012.03 1012.27 1012.50 1012.71 1012.90 1013.07 1013.25 1013.45 1013.67 1013.96 1014.30 1014.72 1015.20 1015.74 1016.32 1016.90 1017.48 1018.02 1018.49 1018.90 1019.22 1019.47 1019.66 1019.80 1019.92 1020.03 1020.17 1020.34 1020.55 1020.80 1021.07 1021.34 1021.59 1021.79 1021.92 1021.97
1010.97 1011.21 1011.47 1011.73 1011.98 1012.21 1012.40 1012.58 1012.75 1012.93 1013.15 1013.42 1013.76 1014.18 1014.66 1015.20 1015.78 1016.37 1016.95 1017.49 1017.96 1018.35 1018.66 1018.90 1019.07 1019.20 1019.31 1019.42 1019.56 1019.73 1019.94 1020.18 1020.44 1020.71 1020.94 1021.14 1021.26 1021.31
1010.47 1010.72 1011.00 1011.28 1011.54 1011.77 1011.98 1012.15 1012.33 1012.51 1012.72 1012.99 1013.33 1013.74 1014.23 1014.76 1015.34 1015.92 1016.49 1017.01 1017.46 1017.84 1018.14 1018.37 1018.53 1018.66 1018.76 1018.87 1019.01 1019.17 1019.37 1019.59 1019.83 1020.07 1020.28 1020.45 1020.56 1020.60
1010.07 1010.32 1010.59 1010.87 1011.14 1011.37 1011.58 1011.76 1011.94 1012.13 1012.35 1012.63 1012.97 1013.38 1013.86 1014.39 1014.95 1015.52 1016.07 1016.57 1017.01 1017.38 1017.67 1017.89 1018.05 1018.18 1018.29 1018.40 1018.52 1018.67 1018.85 1019.05 1019.26 1019.45 1019.63 1019.76 1019.85 1019.87
1009.73 1009.96 1010.22 1010.48 1010.73 1010.95 1011.16 1011.34 1011.53 1011.73 1011.96 1012.25 1012.60 1013.02 1013.49 1014.02 1014.56 1015.11 1015.64 1016.13 1016.56 1016.91 1017.20 1017.43 1017.60 1017.74 1017.86 1017.97 1018.10 1018.24 1018.39 1018.56 1018.72 1018.87 1019.00 1019.09 1019.14 1019.15
1009.41 1009.60 1009.82 1010.04 1010.26 1010.46 1010.65 1010.84 1011.03 1011.24 1011.50 1011.80 1012.16 1012.59 1013.06 1013.58 1014.11 1014.65 1015.16 1015.63 1016.05 1016.41 1016.70 1016.94 1017.14 1017.30 1017.44 1017.57 1017.70 1017.83 1017.97 1018.10 1018.22 1018.32 1018.40 1018.45 1018.46 1018.44
1009.05 1009.19 1009.36 1009.53 1009.70 1009.88 1010.05 1010.22 1010.42 1010.65 1010.92 1011.24 1011.62 1012.05 1012.53 1013.04 1013.56 1014.08 1014.58 1015.04 1015.46 1015.82 1016.13 1016.40 1016.63 1016.82 1016.99 1017.15 1017.29 1017.43 1017.55 1017.65 1017.74 1017.79 1017.82 1017.82 1017.80 1017.77
1008.64 1008.72 1008.82 1008.94 1009.07 1009.20 1009.35 1009.52 1009.72 1009.96 1010.24 1010.58 1010.97 1011.41 1011.89 1012.39 1012.90 1013.41 1013.90 1014.35 1014.77 1015.15 1015.48 1015.78 1016.05 1016.28 1016.49 1016.68 1016.84 1016.99 1017.10 1017.19 1017.24 1017.27 1017.26 1017.23 1017.18 1017.12
1008.18 1008.20 1008.24 1008.30 1008.38 1008.49 1008.62 1008.78 1008.98 1009.23 1009.53 1009.89 1010.29 1010.73 1011.21 1011.70 1012.20 1012.69 1013.17 1013.61 1014.03 1014.42 1014.78 1015.11 1015.41 1015.68 1015.93 1016.15 1016.34 1016.49 1016.61 1016.69 1016.72 1016.72 1016.69 1016.63 1016.57 1016.50
1007.70 1007.67 1007.65 1007.67 1007.72 1007.80 1007.91 1008.07 1008.28 1008.54 1008.86 1009.22 1009.63 1010.08 1010.54 1011.02 1011.50 1011.98 1012.44 1012.88 1013.30 1013.69 1014.07 1014.42 1014.74 1015.05 1015.33 1015.57 1015.78 1015.94 1016.07 1016.14 1016.17 1016.16 1016.11 1016.05 1015.97 1015.91
1007.25 1007.16 1007.11 1007.09 1007.11 1007.17 1007.29 1007.45 1007.67 1007.94 1008.27 1008.64 1009.05 1009.49 1009.95 1010.41 1010.87 1011.33 1011.77 1012.20 1012.61 1013.00 1013.38 1013.75 1014.09 1014.41 1014.71 1014.97 1015.18 1015.36 1015.48 1015.55 1015.58 1015.57 1015.52 1015.46 1015.39 1015.33
1006.85 1006.72 1006.64 1006.59 1006.59 1006.65 1006.76 1006.93 1007.15 1007.44 1007.77 1008.15 1008.56 1008.99 1009.43 1009.88 1010.32 1010.75 1011.18 1011.59 1011.99 1012.38 1012.76 1013.13 1013.47 1013.80 1014.09 1014.36 1014.57 1014.75 1014.87 1014.94 1014.97 1014.97 1014.93 1014.88 1014.83 1014.79
1006.52 1006.36 1006.25 1006.18 1006.16 1006.21 1006.31 1006.48 1006.71 1007.00 1007.33 1007.70 1008.10 1008.52 1008.95 1009.38 1009.81 1010.22 1010.63 1011.03 1011.43 1011.81 1012.18 1012.54 1012.89 1013.21 1013.50 1013.75 1013.96 1014.12 1014.24 1014.32 1014.36 1014.36 1014.34 1014.32 1014.29 1014.27
Thickness
5662 5660 5659 5658 5657 5657 5656 5655 5652 5650 5652 5655 5657 5660 5660 5661 5662 5662 5662 5663 5663 5662 5661 5660 5659 5659 5659 5658 5657 5657 5657 5656 5656 5656 5656 5655 5656 5655
5657 5655 5654 5653 5652 5651 5651 5650 5649 5648 5648 5651 5651 5653 5654 5655 5656 5656 5656 5657 5657 5656 5655 5654 5654 5654 5654 5653 5652 5652 5652 5651 5651 5651 5651 5651 5651 5651
5652 5650 5649 5648 5647 5646 5645 5644 5643 5643 5642 5645 5645 5647 5647 5648 5649 5649 5650 5649 5650 5650 5649 5649 5648 5648 5648 5647 5647 5647 5647 5647 5646 5646 5646 5646 5646 5647
5647 5646 5644 5643 5642 5641 5640 5640 5639 5638 5637 5638 5639 5639 5640 5641 5642 5642 5643 5643 5643 5644 5644 5643 5643 5643 5642 5642 5642 5642 5642 5642 5641 5641 5641 5642 5642 5642
5642 5641 5640 5638 5636 5635 5635 5634 5633 5633 5631 5631 5632 5632 5633 5633 5633 5634 5635 5635 5636 5637 5637 5637 5637 5637 5636 5636 5636 5636 5636 5636 5636 5636 5636 5637 5637 5637
5637 5635 5634 5632 5631 5629 5628 5627 5626 5625 5625 5624 5625 5625 5624 5625 5625 5625 5626 5627 5629 5631 5631 5631 5631 5630 5631 5631 5632 5631 5631 5631 5631 5631 5632 5632 5632 5632
5631 5629 5628 5627 5626 5624 5623 5622 5620 5619 5618 5618 5617 5617 5617 5617 5618 5618 5618 5620 5622 5623 5624 5624 5624 5624 5625 5626 5626 5626 5626 5626 5626 5626 5627 5627 5627 5627
5625 5623 5622 5621 5620 5619 5618 5617 5616 5614 5613 5611 5611 5611 5612 5612 5612 5612 5612 5612 5614 5617 5616 5618 5618 5619 5620 5621 5622 5622 5622 5622 5622 5622 5622 5622 5622 5622
5619 5617 5617 5616 5614 5613 5612 5611 5610 5609 5608 5607 5606 5606 5606 5607 5605 5605 5606 5606 5609 5611 5609 5611 5612 5613 5615 5616 5617 5617 5617 5617 5617 5617 5617 5617 5617 5617
5614 5612 5610 5609 5608 5606 5605 5604 5603 5603 5602 5601 5602 5602 5602 5601 5600 5600 5600 5600 5602 5603 5603 5604 5606 5607 5610 5611 5611 5612 5611 5611 5612 5612 5612 5612 5612 5612
5609 5607 5605 5603 5602 5600 5598 5597 5597 5597 5596 5596 5596 5596 5595 5595 5594 5593 5593 5594 5596 5598 5597 5598 5600 5600 5602 5604 5605 5606 5605 5605 5605 5606 5606 5606 5606 5606
5603 5601 5600 5598 5596 5594 5592 5591 5590 5591 5590 5590 5589 5590 5589 5590 5589 5589 5590 5589 5590 5592 5593 5591 5592 5591 5594 5597 5597 5598 5598 5598 5599 5600 5601 5601 5601 5600
5597 5595 5594 5592 5590 5588 5586 5586 5586 5585 5584 5584 5584 5584 5585 5585 5585 5584 5585 5585 5586 5587 5587 5585 5585 5584 5585 5588 5589 5591 5591 5592 5593 5594 5595 5596 5596 5596
5592 5590 5589 5586 5584 5582 5581 5582 5580 5579 5578 5578 5578 5579 5580 5580 5581 5580 5580 5580 5581 5582 5581 5579 5579 5579 5579 5580 5582 5584 5584 5585 5586 5588 5589 5590 5590 5591
5588 5586 5584 5582 5580 5579 5578 5577 5575 5574 5574 5573 5574 5575 5575 5575 5575 5574 5575 5574 5574 5575 5575 5574 5574 5574 5573 5574 5576 5577 5578 5579 5580 5581 5583 5584 5585 5586
5582 5580 5578 5576 5575 5574 5574 5573 5572 5571 5570 5570 5570 5569 5568 5568 5568 5569 5569 5569 5568 5570 5569 5568 5568 5568 5568 5569 5570 5571 5572 5573 5574 5575 5576 5578 5579 5581
5576 5574 5573 5572 5572 5571 5569 5568 5567 5566 5564 5564 5564 5563 5563 5563 5563 5562 5562 5562 5562 5564 5564 5563 5562 5562 5563 5564 5565 5566 5567 5567 5568 5569 5569 5572 5575 5577
5570 5570 5569 5568 5567 5566 5565 5564 5563 5562 5561 5559 5558 5558 5558 5557 5557 5557 5556 5556 5557 5558 5558 5558 5557 5557 5557 5558 5559 5560 5561 5562 5562 5563 5564 5567 5570 5573
5566 5566 5564 5563 5562 5561 5560 5559 5559 5558 5557 5555 5554 5553 5552 5552 5551 5551 5550 5550 5551 5552 5553 5552 5551 5551 5553 5555 5556 5554 5555 5557 5557 5558 5560 5563 5566 5568
5563 5561 5560 5559 5558 5557 5556 5555 5554 5553 5551 5550 5549 5547 5546 5545 5545 5544 5544 5544 5544 5545 5545 5546 5546 5546 5547 5549 5549 5549 5549 5551 5552 5554 5556 5557 5559 5561
5560 5558 5557 5556 5554 5553 5551 5550 5549 5548 5546 5545 5543 5541 5540 5539 5538 5538 5538 5536 5537 5539 5540 5541 5541 5540 5540 5540 5541 5544 5544 5544 5547 5549 5550 5552 5555 5557
5556 5554 5553 5552 5550 5549 5547 5546 5544 5543 5541 5539 5538 5536 5535 5534 5533 5532 5532 5532 5533 5533 5534 5534 5533 5533 5534 5535 5537 5538 5539 5539 5540 5541 5543 5547 5550 5554
5552 5551 5549 5548 5546 5544 5543 5541 5540 5538 5536 5534 5533 5531 5530 5529 5528 5527 5526 5527 5527 5527 5527 5527 5526 5526 5528 5529 5530 5532 5533 5534 5535 5536 5537 5539 5542 5545